| time (UTC) | temp C | wind direction | speed KPH | gust KPH | rain 1hr cm | rain 24hr cm | rain mn cm | humidity % | barometer mb |
| 20260905022306 | 27 | 59 | 3.2 | 4.8 | 0.00 | 0.00 | 0.00 | 29 | 997.1 |
| 20260905020804 | 27 | 50 | 1.6 | 4.8 | 0.00 | 0.00 | 0.00 | 29 | 997.1 |
| 20260905015803 | 28 | 42 | 1.6 | 4.8 | 0.00 | 0.00 | 0.00 | 28 | 997.0 |
| 20260905014803 | 28 | 41 | 1.6 | 4.8 | 0.00 | 0.00 | 0.00 | 27 | 996.9 |
| 20260905013804 | 29 | 67 | 4.8 | 9.7 | 0.00 | 0.00 | 0.00 | 26 | 996.9 |
| 20260905013304 | 29 | 70 | 4.8 | 12.9 | 0.00 | 0.00 | 0.00 | 26 | 996.9 |
| 20260905011804 | 29 | 74 | 4.8 | 11.3 | 0.00 | 0.00 | 0.00 | 25 | 996.6 |
| 20260905011304 | 30 | 67 | 4.8 | 9.7 | 0.00 | 0.00 | 0.00 | 25 | 996.6 |
| 20260905010804 | 30 | 61 | 4.8 | 9.7 | 0.00 | 0.00 | 0.00 | 25 | 996.5 |
| 20260905005804 | 30 | 87 | 4.8 | 12.9 | 0.00 | 0.00 | 0.00 | 25 | 996.4 |
| 20260905004804 | 30 | 64 | 6.4 | 12.9 | 0.00 | 0.00 | 0.00 | 24 | 996.6 |
| 20260905004304 | 31 | 82 | 6.4 | 22.5 | 0.00 | 0.00 | 0.00 | 24 | 996.6 |
| 20260905003804 | 31 | 94 | 9.7 | 19.3 | 0.00 | 0.00 | 0.00 | 24 | 996.7 |
| 20260905002306 | 31 | 94 | 9.7 | 20.9 | 0.00 | 0.00 | 0.00 | 24 | 996.5 |
| 20260905001304 | 31 | 99 | 8.0 | 19.3 | 0.00 | 0.00 | 0.00 | 23 | 996.4 |
| 20260904235804 | 32 | 86 | 9.7 | 19.3 | 0.00 | 0.00 | 0.00 | 23 | 996.2 |
| 20260904235306 | 32 | 93 | 6.4 | 22.5 | 0.00 | 0.00 | 0.00 | 23 | 996.2 |
| 20260904233804 | 32 | 74 | 14.5 | 22.5 | 0.00 | 0.00 | 0.00 | 22 | 996.1 |
| 20260904233303 | 32 | 63 | 9.7 | 19.3 | 0.00 | 0.00 | 0.00 | 22 | 996.1 |
| 20260904232804 | 32 | 82 | 14.5 | 27.4 | 0.00 | 0.00 | 0.00 | 21 | 996.1 |
| 20260904230804 | 32 | 73 | 9.7 | 19.3 | 0.00 | 0.00 | 0.00 | 21 | 996.0 |
| 20260904225305 | 33 | 73 | 9.7 | 19.3 | 0.00 | 0.00 | 0.00 | 21 | 996.0 |
| 20260904223304 | 33 | 76 | 8.0 | 29.0 | 0.00 | 0.00 | 0.00 | 20 | 996.0 |
| 20260904222804 | 32 | 87 | 12.9 | 29.0 | 0.00 | 0.00 | 0.00 | 20 | 996.0 |
| 20260904222306 | 33 | 73 | 12.9 | 22.5 | 0.00 | 0.00 | 0.00 | 19 | 996.0 |
| 20260904221804 | 33 | 60 | 8.0 | 19.3 | 0.00 | 0.00 | 0.00 | 19 | 996.1 |
| 20260904221304 | 33 | 71 | 8.0 | 19.3 | 0.00 | 0.00 | 0.00 | 19 | 996.1 |
| 20260904220304 | 33 | 89 | 8.0 | 14.5 | 0.00 | 0.00 | 0.00 | 17 | 996.2 |
| 20260904214804 | 33 | 59 | 9.7 | 19.3 | 0.00 | 0.00 | 0.00 | 17 | 996.1 |
| 20260904214303 | 33 | 82 | 9.7 | 19.3 | 0.00 | 0.00 | 0.00 | 18 | 996.2 |
| 20260904213304 | 33 | 68 | 11.3 | 19.3 | 0.00 | 0.00 | 0.00 | 17 | 996.5 |
| 20260904212306 | 33 | 86 | 9.7 | 19.3 | 0.00 | 0.00 | 0.00 | 17 | 996.5 |
| 20260904211803 | 32 | 73 | 6.4 | 24.1 | 0.00 | 0.00 | 0.00 | 18 | 996.5 |
| 20260904211304 | 32 | 58 | 1.6 | 14.5 | 0.00 | 0.00 | 0.00 | 17 | 996.5 |
| 20260904210803 | 32 | 88 | 8.0 | 16.1 | 0.00 | 0.00 | 0.00 | 19 | 996.7 |
| 20260904205305 | 32 | 75 | 9.7 | 19.3 | 0.00 | 0.00 | 0.00 | 18 | 996.8 |
| 20260904204804 | 32 | 73 | 11.3 | 20.9 | 0.00 | 0.00 | 0.00 | 19 | 997.1 |
| 20260904204303 | 32 | 101 | 12.9 | 19.3 | 0.00 | 0.00 | 0.00 | 20 | 997.1 |
| 20260904203804 | 32 | 119 | 11.3 | 20.9 | 0.00 | 0.00 | 0.00 | 20 | 997.1 |
| 20260904202306 | 33 | 127 | 11.3 | 22.5 | 0.00 | 0.00 | 0.00 | 22 | 997.6 |
| 20260904201804 | 32 | 100 | 12.9 | 25.7 | 0.00 | 0.00 | 0.00 | 22 | 997.6 |
| 20260904200804 | 32 | 78 | 14.5 | 22.5 | 0.00 | 0.00 | 0.00 | 20 | 997.8 |
| 20260904200304 | 32 | 118 | 8.0 | 14.5 | 0.00 | 0.00 | 0.00 | 21 | 997.8 |
| 20260904195804 | 32 | 107 | 16.1 | 25.7 | 0.00 | 0.00 | 0.00 | 21 | 998.1 |
| 20260904194303 | 32 | 97 | 11.3 | 22.5 | 0.00 | 0.00 | 0.00 | 21 | 998.1 |
| 20260904193803 | 32 | 145 | 12.9 | 22.5 | 0.00 | 0.00 | 0.00 | 19 | 998.1 |
| 20260904192803 | 32 | 105 | 9.7 | 20.9 | 0.00 | 0.00 | 0.00 | 21 | 998.2 |
| 20260904192306 | 33 | 114 | 14.5 | 19.3 | 0.00 | 0.00 | 0.00 | 19 | 998.4 |
| 20260904191803 | 32 | 94 | 9.7 | 22.5 | 0.00 | 0.00 | 0.00 | 18 | 998.3 |
| 20260904191304 | 32 | 102 | 14.5 | 24.1 | 0.00 | 0.00 | 0.00 | 18 | 998.3 |
| 20260904190304 | 32 | 65 | 9.7 | 22.5 | 0.00 | 0.00 | 0.00 | 20 | 998.5 |
| 20260904185306 | 32 | 172 | 16.1 | 29.0 | 0.00 | 0.00 | 0.00 | 18 | 998.7 |
| 20260904184803 | 32 | 167 | 12.9 | 20.9 | 0.00 | 0.00 | 0.00 | 20 | 998.6 |
| 20260904183804 | 32 | 207 | 9.7 | 19.3 | 0.00 | 0.00 | 0.00 | 19 | 998.6 |
| 20260904183304 | 31 | 153 | 9.7 | 24.1 | 0.00 | 0.00 | 0.00 | 20 | 998.7 |
| 20260904182306 | 31 | 94 | 9.7 | 19.3 | 0.00 | 0.00 | 0.00 | 22 | 998.9 |
| 20260904181304 | 31 | 153 | 12.9 | 24.1 | 0.00 | 0.00 | 0.00 | 21 | 999.0 |
| 20260904180804 | 32 | 167 | 11.3 | 19.3 | 0.00 | 0.00 | 0.00 | 21 | 999.0 |
| 20260904180304 | 31 | 114 | 11.3 | 20.9 | 0.00 | 0.00 | 0.00 | 23 | 999.1 |
| 20260904175804 | 31 | 151 | 9.7 | 14.5 | 0.00 | 0.00 | 0.00 | 22 | 999.1 |
| 20260904175305 | 31 | 123 | 9.7 | 19.3 | 0.00 | 0.00 | 0.00 | 22 | 999.1 |
| 20260904173304 | 31 | 177 | 9.7 | 16.1 | 0.00 | 0.00 | 0.00 | 23 | 999.3 |
| 20260904171303 | 30 | 151 | 6.4 | 19.3 | 0.00 | 0.00 | 0.00 | 26 | 999.4 |
| 20260904165305 | 28 | 162 | 9.7 | 16.1 | 0.00 | 0.00 | 0.00 | 26 | 999.6 |
| 20260904164803 | 28 | 166 | 9.7 | 16.1 | 0.00 | 0.00 | 0.00 | 28 | 999.6 |
| 20260904163804 | 27 | 156 | 8.0 | 12.9 | 0.00 | 0.00 | 0.00 | 27 | 999.6 |
| 20260904163305 | 27 | 174 | 9.7 | 14.5 | 0.00 | 0.00 | 0.00 | 28 | 999.6 |
| 20260904162306 | 27 | 139 | 8.0 | 14.5 | 0.00 | 0.00 | 0.00 | 29 | 999.8 |
| 20260904161804 | 26 | 161 | 9.7 | 16.1 | 0.00 | 0.00 | 0.00 | 28 | 999.8 |
| 20260904160804 | 26 | 172 | 9.7 | 19.3 | 0.00 | 0.00 | 0.00 | 29 | 999.9 |
| 20260904160304 | 26 | 177 | 9.7 | 16.1 | 0.00 | 0.00 | 0.00 | 29 | 999.9 |
| 20260904154804 | 25 | 154 | 8.0 | 14.5 | 0.00 | 0.00 | 0.00 | 31 | 999.8 |
| 20260904154304 | 24 | 176 | 9.7 | 19.3 | 0.00 | 0.00 | 0.00 | 32 | 999.8 |
| 20260904153804 | 24 | 152 | 9.7 | 16.1 | 0.00 | 0.00 | 0.00 | 34 | 999.7 |
| 20260904153304 | 23 | 161 | 11.3 | 22.5 | 0.00 | 0.00 | 0.00 | 33 | 999.7 |
| 20260904152804 | 23 | 151 | 8.0 | 19.3 | 0.00 | 0.00 | 0.00 | 33 | 999.7 |
| 20260904152306 | 23 | 161 | 11.3 | 20.9 | 0.00 | 0.00 | 0.00 | 36 | 999.7 |
| 20260904151804 | 23 | 132 | 9.7 | 14.5 | 0.00 | 0.00 | 0.00 | 35 | 999.7 |
| 20260904151303 | 23 | 147 | 6.4 | 11.3 | 0.00 | 0.00 | 0.00 | 38 | 999.8 |
| 20260904150304 | 22 | 162 | 4.8 | 9.7 | 0.00 | 0.00 | 0.00 | 38 | 999.8 |
| 20260904145804 | 22 | 179 | 9.7 | 12.9 | 0.00 | 0.00 | 0.00 | 37 | 999.8 |
| 20260904144804 | 21 | 165 | 6.4 | 11.3 | 0.00 | 0.00 | 0.00 | 38 | 999.8 |
| 20260904142306 | 20 | 169 | 4.8 | 8.0 | 0.00 | 0.00 | 0.00 | 47 | 999.6 |
| 20260904141804 | 20 | 207 | 4.8 | 9.7 | 0.00 | 0.00 | 0.00 | 47 | 999.6 |
| 20260904141305 | 19 | 168 | 4.8 | 8.0 | 0.00 | 0.00 | 0.00 | 50 | 999.7 |
| 20260904140804 | 19 | 150 | 1.6 | 4.8 | 0.00 | 0.00 | 0.00 | 51 | 999.7 |
| 20260904140305 | 18 | 168 | 3.2 | 8.0 | 0.00 | 0.00 | 0.00 | 52 | 999.5 |
| 20260904135306 | 18 | 183 | 3.2 | 4.8 | 0.00 | 0.00 | 0.00 | 52 | 999.3 |
| 20260904133804 | 17 | 165 | 4.8 | 11.3 | 0.00 | 0.00 | 0.00 | 53 | 999.3 |
| 20260904133305 | 17 | 192 | 4.8 | 8.0 | 0.00 | 0.00 | 0.00 | 54 | 999.2 |
| 20260904132306 | 16 | 172 | 3.2 | 9.7 | 0.00 | 0.00 | 0.00 | 60 | 999.2 |
| 20260904131805 | 15 | 159 | 0.0 | 3.2 | 0.00 | 0.00 | 0.00 | 63 | 999.2 |
| 20260904130805 | 15 | 193 | 0.0 | 3.2 | 0.00 | 0.00 | 0.00 | 64 | 999.2 |
| 20260904130304 | 15 | 193 | 1.6 | 3.2 | 0.00 | 0.00 | 0.00 | 65 | 999.1 |
| 20260904125306 | 15 | 193 | 0.0 | 0.0 | 0.00 | 0.00 | 0.00 | 65 | 998.8 |
| 20260904123805 | 15 | 193 | 1.6 | 4.8 | 0.00 | 0.00 | 0.00 | 65 | 998.7 |
| 20260904123304 | 15 | 193 | 3.2 | 3.2 | 0.00 | 0.00 | 0.00 | 66 | 998.6 |
| 20260904121805 | 15 | 200 | 1.6 | 3.2 | 0.00 | 0.00 | 0.00 | 65 | 998.6 |
| 20260904120305 | 15 | 200 | 1.6 | 3.2 | 0.00 | 0.00 | 0.00 | 62 | 998.4 |
| 20260904113805 | 15 | 199 | 1.6 | 4.8 | 0.00 | 0.00 | 0.00 | 65 | 998.3 |
| 20260904112805 | 15 | 225 | 3.2 | 4.8 | 0.00 | 0.00 | 0.00 | 66 | 998.2 |
| 20260904111805 | 15 | 242 | 3.2 | 4.8 | 0.00 | 0.00 | 0.00 | 65 | 998.2 |
| 20260904111305 | 15 | 242 | 0.0 | 3.2 | 0.00 | 0.00 | 0.00 | 64 | 998.0 |
| 20260904110805 | 15 | 242 | 1.6 | 3.2 | 0.00 | 0.00 | 0.00 | 64 | 997.9 |
| 20260904105805 | 15 | 242 | 1.6 | 3.2 | 0.00 | 0.00 | 0.00 | 62 | 998.0 |
| 20260904104305 | 16 | 242 | 0.0 | 0.0 | 0.00 | 0.00 | 0.00 | 59 | 997.9 |
| 20260904103305 | 16 | 242 | 1.6 | 3.2 | 0.00 | 0.00 | 0.00 | 58 | 997.7 |
| 20260904102306 | 16 | 242 | 1.6 | 3.2 | 0.00 | 0.00 | 0.00 | 56 | 997.6 |
| 20260904101804 | 16 | 242 | 1.6 | 3.2 | 0.00 | 0.00 | 0.00 | 56 | 997.6 |
| 20260904101304 | 17 | 242 | 0.0 | 1.6 | 0.00 | 0.00 | 0.00 | 55 | 997.4 |
| 20260904100805 | 16 | 242 | 1.6 | 3.2 | 0.00 | 0.00 | 0.00 | 55 | 997.4 |
| 20260904095805 | 16 | 252 | 0.0 | 3.2 | 0.00 | 0.00 | 0.00 | 57 | 997.4 |
| 20260904093305 | 16 | 252 | 0.0 | 3.2 | 0.00 | 0.00 | 0.00 | 55 | 997.3 |
| 20260904092805 | 16 | 252 | 1.6 | 3.2 | 0.00 | 0.00 | 0.00 | 55 | 997.3 |
| 20260904090305 | 17 | 285 | 1.6 | 4.8 | 0.00 | 0.00 | 0.00 | 52 | 997.1 |
| 20260904083804 | 17 | 315 | 3.2 | 4.8 | 0.00 | 0.00 | 0.00 | 54 | 997.0 |
| 20260904083305 | 17 | 304 | 3.2 | 8.0 | 0.00 | 0.00 | 0.00 | 56 | 997.0 |
| 20260904081304 | 17 | 215 | 0.0 | 0.0 | 0.00 | 0.00 | 0.00 | 56 | 996.9 |
| 20260904075804 | 17 | 215 | 1.6 | 3.2 | 0.00 | 0.00 | 0.00 | 54 | 996.9 |
| 20260904072804 | 18 | 200 | 3.2 | 4.8 | 0.00 | 0.00 | 0.00 | 51 | 997.1 |
| 20260904071305 | 18 | 0 | 0.0 | 3.2 | 0.00 | 0.00 | 0.00 | 50 | 997.0 |
| 20260904070805 | 18 | 0 | 1.6 | 4.8 | 0.00 | 0.00 | 0.00 | 50 | 997.1 |
| 20260904065805 | 18 | 127 | 4.8 | 8.0 | 0.00 | 0.00 | 0.00 | 50 | 997.1 |
| 20260904064804 | 19 | 163 | 3.2 | 4.8 | 0.00 | 0.00 | 0.00 | 48 | 997.3 |
| 20260904064304 | 19 | 181 | 0.0 | 0.0 | 0.00 | 0.00 | 0.00 | 48 | 997.1 |
| 20260904063805 | 20 | 144 | 3.2 | 4.8 | 0.00 | 0.00 | 0.00 | 47 | 997.3 |
| 20260904063305 | 19 | 180 | 0.0 | 1.6 | 0.00 | 0.00 | 0.00 | 48 | 997.2 |
| 20260904062805 | 20 | 180 | 1.6 | 3.2 | 0.00 | 0.00 | 0.00 | 47 | 997.2 |
| 20260904061304 | 20 | 177 | 1.6 | 8.0 | 0.00 | 0.00 | 0.00 | 45 | 997.2 |
| 20260904060816 | 20 | 245 | 3.2 | 8.0 | 0.00 | 0.00 | 0.00 | 45 | 997.2 |
| 20260904054804 | 21 | 197 | 3.2 | 8.0 | 0.00 | 0.00 | 0.00 | 42 | 997.4 |
| 20260904053804 | 21 | 172 | 3.2 | 4.8 | 0.00 | 0.00 | 0.00 | 43 | 997.3 |
| 20260904053305 | 21 | 175 | 3.2 | 8.0 | 0.00 | 0.00 | 0.00 | 43 | 997.3 |
| 20260904052804 | 21 | 182 | 6.4 | 9.7 | 0.00 | 0.00 | 0.00 | 43 | 997.3 |
| 20260904052307 | 21 | 156 | 3.2 | 12.9 | 0.00 | 0.00 | 0.00 | 42 | 997.3 |
| 20260904051805 | 21 | 144 | 6.4 | 12.9 | 0.00 | 0.00 | 0.00 | 41 | 997.2 |
| 20260904051305 | 21 | 129 | 11.3 | 19.3 | 0.00 | 0.00 | 0.00 | 42 | 997.0 |
| 20260904050805 | 21 | 134 | 9.7 | 14.5 | 0.00 | 0.05 | 0.00 | 41 | 996.9 |
| 20260904045804 | 22 | 143 | 4.8 | 8.0 | 0.00 | 0.30 | 0.00 | 39 | 996.8 |
| 20260904045307 | 22 | 191 | 3.2 | 8.0 | 0.00 | 0.33 | 0.00 | 38 | 996.7 |
| 20260904044805 | 22 | 200 | 4.8 | 9.7 | 0.00 | 0.33 | 0.00 | 39 | 996.5 |
| 20260904043804 | 22 | 229 | 4.8 | 11.3 | 0.00 | 0.33 | 0.00 | 38 | 996.4 |
| 20260904042805 | 22 | 274 | 6.4 | 12.9 | 0.00 | 0.33 | 0.00 | 38 | 996.4 |
| 20260904042306 | 22 | 245 | 6.4 | 11.3 | 0.00 | 0.33 | 0.00 | 38 | 996.5 |
| 20260904040805 | 22 | 241 | 6.4 | 11.3 | 0.00 | 0.33 | 0.00 | 39 | 996.6 |
| 20260904040304 | 22 | 202 | 4.8 | 11.3 | 0.00 | 0.33 | 0.00 | 39 | 996.6 |
| 20260904035804 | 22 | 254 | 6.4 | 11.3 | 0.00 | 0.33 | 0.00 | 38 | 996.6 |
| 20260904035306 | 22 | 244 | 4.8 | 9.7 | 0.00 | 0.33 | 0.00 | 37 | 996.7 |
| 20260904034805 | 22 | 259 | 3.2 | 4.8 | 0.00 | 0.33 | 0.00 | 36 | 996.5 |
| 20260904032805 | 23 | 261 | 3.2 | 8.0 | 0.00 | 0.33 | 0.00 | 34 | 996.5 |
| 20260904032306 | 23 | 268 | 1.6 | 4.8 | 0.00 | 0.33 | 0.00 | 33 | 996.5 |
| 20260904031304 | 24 | 252 | 4.8 | 9.7 | 0.00 | 0.33 | 0.00 | 30 | 996.4 |
| 20260904030805 | 24 | 284 | 4.8 | 8.0 | 0.00 | 0.33 | 0.00 | 30 | 996.4 |
| 20260904030304 | 25 | 36 | 4.8 | 12.9 | 0.00 | 0.33 | 0.00 | 29 | 996.2 |
| 20260904025306 | 26 | 64 | 9.7 | 16.1 | 0.00 | 0.33 | 0.00 | 27 | 996.1 |
| 20260904024804 | 26 | 61 | 9.7 | 16.1 | 0.00 | 0.33 | 0.00 | 26 | 996.2 |